Iasi, Romania

2:51 PM EET on February 27, 2017 (GMT +0200)
Iasi

Weather History for LRIA - July, 2012

Change the Weather History Date:

Saturday, July 14, 2012

  Actual Average Record
Temperature  
Mean Temperature 82 °F -  
Max Temperature 95 °F 80 °F - ()
Min Temperature 68 °F 59 °F - ()
Cooling Degree Days 16    
Growing Degree Days 32 (Base 50)    
Moisture  
Dew Point 57 °F    
Average Humidity 41    
Maximum Humidity 73    
Minimum Humidity 14    
Precipitation  
Precipitation 0.00 in 0.09 in - ()
Sea Level Pressure  
Sea Level Pressure 29.88 in    
Wind  
Wind Speed 6 mph ()    
Max Wind Speed 14 mph    
Max Gust Speed -    
Visibility 6.0 miles    
Events      
T = Trace of Precipitation, MM = Missing Value Source: Averaged Metar Reports

Daily Weather History Graph

Daily Weather History Graph

Search for Another Location

Airport or City:

Trip Planner

Search our weather history database for the weather conditions in past years. The results will help you decide how hot, cold, wet, or windy it might be!

Date:

Astronomy

Jul. 14, 2012 Rise Set
Actual Time 5:28 AM EEST 9:02 PM EEST
Civil Twilight 4:49 AM EEST 9:40 PM EEST
Nautical Twilight 3:58 AM EEST 10:31 PM EEST
Astronomical Twilight 2:49 AM EEST 11:39 PM EEST
Moon 1:33 AM EEST (7/14) 5:07 PM EEST (7/14)
Length of Visible Light 16h 50m
Length of Day
15h 33m
Waning Crescent, 21% of the Moon is Illuminated
Jul 14
Waning Crescent
Jul 19
New
Jul 26
First Quarter
Aug 2
Full
Aug 9
Last Quarter

Hourly Weather History & Observations

Time (EEST) Temp. Heat Index Dew Point Humidity Pressure Visibility Wind Dir Wind Speed Gust Speed Precip Events Conditions
12:00 AM 69.8 °F - 53.6 °F 56% 29.92 in - East 6.9 mph - N/A   Clear
1:00 AM 71 °F - 55 °F 48% 29.91 in 6 mi NE 2.2 mph - -  
1:00 AM 69.8 °F - 53.6 °F 56% 29.92 in - East 6.9 mph - N/A   Clear
2:00 AM 71 °F - 55 °F 47% 29.90 in 6 mi ENE 4.5 mph - -  
2:00 AM 69.8 °F - 55.4 °F 60% 29.92 in - East 4.6 mph - N/A   Clear
3:00 AM 70 °F - 57 °F 53% 29.90 in 6 mi Calm Calm - -  
3:00 AM 69.8 °F - 57.2 °F 64% 29.89 in - SE 6.9 mph - N/A   Clear
4:00 AM 70 °F - 58 °F 56% 29.89 in 6 mi Calm Calm - -  
4:00 AM 73.4 °F - 57.2 °F 57% 29.89 in - South 6.9 mph - N/A   Clear
5:00 AM 71 °F - 58 °F 56% 29.88 in 6 mi SSE 2.2 mph - -   Clear
5:00 AM 73.4 °F - 59.0 °F 61% 29.89 in - SSE 6.9 mph - N/A   Clear
5:30 AM 73.4 °F - 59.0 °F 61% 29.89 in 6.2 mi South 6.9 mph - N/A   Partly Cloudy
6:00 AM 74 °F - 60 °F 51% 29.89 in 6 mi SSW 4.5 mph - -   Scattered Clouds
6:00 AM 73.4 °F - 59.0 °F 61% 29.92 in - South 4.6 mph - N/A   Clear
6:30 AM 71.6 °F - 59.0 °F 64% 29.92 in 6.2 mi Variable 2.3 mph - N/A   Partly Cloudy
7:00 AM 73 °F - 60 °F 55% 29.91 in 6 mi Calm Calm - -   Partly Cloudy
7:00 AM 71.6 °F - 60.8 °F 69% 29.92 in 6.2 mi ESE 6.9 mph - N/A   Partly Cloudy
7:30 AM 71.6 °F - 60.8 °F 69% 29.92 in 6.2 mi ESE 6.9 mph - N/A   Partly Cloudy
8:00 AM 72 °F - 61 °F 59% 29.91 in 6 mi East 4.5 mph - -   Partly Cloudy
8:00 AM 69.8 °F - 60.8 °F 73% 29.92 in 6.2 mi ESE 9.2 mph - N/A   Partly Cloudy
8:30 AM 73.4 °F - 60.8 °F 65% 29.92 in - ESE 9.2 mph - N/A   Clear
9:00 AM 75 °F - 62 °F 55% 29.90 in 6 mi ESE 4.5 mph - -   Scattered Clouds
9:00 AM 77.0 °F - 62.6 °F 61% 29.92 in - ESE 9.2 mph - N/A   Clear
9:30 AM 80.6 °F 81.8 °F 62.6 °F 54% 29.92 in - SSE 9.2 mph - N/A   Clear
10:00 AM 82 °F - 61 °F 39% 29.89 in 6 mi SSE 6.7 mph - -   Scattered Clouds
10:00 AM 82.4 °F 82.5 °F 59.0 °F 45% 29.92 in - South 11.5 mph - N/A   Clear
10:30 AM 84.2 °F 83.8 °F 59.0 °F 42% 29.92 in - South 13.8 mph - N/A   Clear
11:00 AM 86 °F - 58 °F 28% 29.88 in 6 mi South 6.7 mph - -  
11:00 AM 86.0 °F 85.4 °F 59.0 °F 40% 29.89 in - South 11.5 mph - N/A   Clear
11:30 AM 87.8 °F 86.5 °F 57.2 °F 35% 29.89 in - SSW 11.5 mph - N/A   Clear
12:00 PM 89 °F - 57 °F 24% 29.87 in 6 mi South 6.7 mph - -  
1:00 PM 90 °F - 54 °F 20% 29.87 in 6 mi South 4.5 mph - -  
1:00 PM 89.6 °F 87.7 °F 55.4 °F 31% 29.89 in - SE 6.9 mph - N/A   Clear
1:30 PM 91.4 °F 89.4 °F 55.4 °F 29% 29.89 in - SW 6.9 mph - N/A   Clear
2:00 PM 93 °F - 54 °F 18% 29.87 in 6 mi South 2.2 mph - -   Scattered Clouds
2:30 PM 91.4 °F 89.1 °F 53.6 °F 28% 29.89 in - ESE 9.2 mph - N/A   Clear
3:00 PM 94 °F - 53 °F 16% 29.86 in 6 mi South 4.5 mph - -   Scattered Clouds
3:00 PM 93.2 °F 90.8 °F 53.6 °F 26% 29.86 in - SW 9.2 mph - N/A   Clear
3:30 PM 93.2 °F 90.8 °F 53.6 °F 26% 29.86 in - SW 9.2 mph - N/A   Clear
4:00 PM 95 °F - 54 °F 16% 29.84 in 6 mi South 6.7 mph - -   Scattered Clouds
4:00 PM 93.2 °F 90.8 °F 53.6 °F 26% 29.86 in - South 11.5 mph - N/A   Clear
4:30 PM 93.2 °F 90.8 °F 53.6 °F 26% 29.86 in - South 9.2 mph - N/A   Clear
5:00 PM 96 °F - 52 °F 14% 29.83 in 6 mi SW 4.5 mph - -   Scattered Clouds
5:00 PM 93.2 °F 90.8 °F 53.6 °F 26% 29.86 in - South 6.9 mph - N/A   Clear
6:00 PM 95 °F - 51 °F 14% 29.82 in 6 mi SSE 6.7 mph - -   Scattered Clouds
6:00 PM 93.2 °F 90.8 °F 53.6 °F 26% 29.86 in - South 9.2 mph - N/A   Clear
6:30 PM 93.2 °F 90.8 °F 53.6 °F 26% 29.83 in - South 9.2 mph - N/A   Clear
7:00 PM 93 °F - 51 °F 15% 29.82 in 6 mi South 6.7 mph - -   Scattered Clouds
7:00 PM 91.4 °F 89.1 °F 53.6 °F 28% 29.83 in - South 9.2 mph - N/A   Clear
7:30 PM 91.4 °F 89.4 °F 55.4 °F 29% 29.86 in - South 9.2 mph - N/A   Clear
8:00 PM 92 °F - 54 °F 18% 29.83 in 6 mi South 8.9 mph - -   Scattered Clouds
8:00 PM 89.6 °F 87.7 °F 55.4 °F 31% 29.86 in - South 9.2 mph - N/A   Clear
8:30 PM 87.8 °F 86.5 °F 57.2 °F 35% 29.86 in - South 6.9 mph - N/A   Clear
9:00 PM 89 °F - 56 °F 22% 29.83 in 6 mi South 4.5 mph - -   Scattered Clouds
9:00 PM 86.0 °F 84.9 °F 57.2 °F 37% 29.86 in - South 6.9 mph - N/A   Clear
10:00 PM 86 °F - 58 °F 29% 29.84 in 6 mi South 2.2 mph - -   Scattered Clouds
10:00 PM 82.4 °F 82.5 °F 59.0 °F 45% 29.86 in - SE 6.9 mph - N/A   Clear
11:00 PM 81 °F - 60 °F 38% 29.84 in 6 mi East 4.5 mph - -  
11:00 PM 80.6 °F 81.5 °F 60.8 °F 51% 29.86 in - ESE 6.9 mph - N/A   Clear